TIANWANG 1A (TW-1A)
1 40928U 15051D   19241.83470160 +.00001971 +00000-0 +49576-4 0  9994
2 40928 097.1421 271.5374 0011622 162.2249 284.6162 15.41068117220283
LAPAN A2
1 40931U 15052B   19241.68774881  .00000627  00000-0 -16366-5 0  9999
2 40931   5.9992 263.2218 0012291  91.7556 268.4480 14.76612057211921
LQSAT
1 40958U 15057A   19241.63321844 -.00000016 +00000-0 +52002-5 0  9994
2 40958 097.8937 308.8674 0018414 015.0190 345.1561 14.73086695209400
CHUBUSAT 2
1 41338U 16012B   19241.81831826 +.00000242 +00000-0 +12129-4 0  9990
2 41338 031.0039 046.3898 0013565 097.5188 262.6989 15.00170250193751
CHUBUSAT 3
1 41339U 16012C   19241.77939898 +.00000274 +00000-0 +14546-4 0  9994
2 41339 031.0119 044.6318 0013879 101.8870 258.3302 15.00344813193742
OUFTI-1
1 41458U 16025C   19241.68536536 +.00001383 +00000-0 +73422-4 0  9992
2 41458 098.1008 332.1913 0167456 114.8632 247.0108 15.05950042183405
E-STAR-2
1 41459U 16025D   19241.85200577 +.00001717 +00000-0 +90585-4 0  9995
2 41459 098.1028 331.9875 0168897 115.9314 245.9404 15.05590466183407
AAUSAT 4
1 41460U 16025E   19241.73683673  .00002378  00000-0  12140-3 0  9990
2 41460  98.0948 333.2892 0158336 108.2326 253.6240 15.07522092183527
NUSAT 1
1 41557U 16033B   19241.91816572 +.00000812 +00000-0 +33028-4 0  9992
2 41557 097.4169 328.9993 0014963 047.9402 312.3108 15.27325533181118
BEESAT 4
1 41619U 16040W   19241.84433812 +.00000893 +00000-0 +40582-4 0  9995
2 41619 097.3619 302.7061 0012773 125.4131 234.8301 15.23245721164840
PRATHAM
1 41783U 16059A   19241.61779406 +.00000029 +00000-0 +14855-4 0  9999
2 41783 098.0615 299.5891 0034203 155.8354 204.4462 14.63005680156063
ALSAT 1N
1 41789U 16059G   19241.88676345 +.00000028 +00000-0 +14335-4 0  9994
2 41789 098.0639 302.0045 0029332 144.1940 216.1225 14.64257308156216
NAYIF 1
1 42017U 17008BX  19241.91271261 +.00000914 +00000-0 +38749-4 0  9995
2 42017 097.3980 308.2478 0004494 276.1490 083.9236 15.25658127140934
MAX VALIER SAT
1 42778U 17036P   19241.91147409 +.00000554 +00000-0 +27190-4 0  9994
2 42778 097.3485 297.9660 0011539 338.5526 021.5225 15.22099255121221
